Zurück zum Katalog

STARLINK-37523

AktivKommunikationVLEO
NORAD 69528·PAYLOAD·🇺🇸 United States

Gestartet Jun 12, 2026 von Cape Canaveral Space Force Station

Loading…

Nächste Überflüge (nächste 24 Stunden)

TLE

AktuellSource: CelesTrak SupGP

Epoche: Sep 14, 2026, 21:40 UTC

1 69528C 26133W   26257.90326389  .00046673  00000+0  13793-2 0  2574
2 69528  53.1567 255.6055 0001255  87.2378  88.7983 15.34359624    11

Verfolge STARLINK-37523 in Echtzeit mit AllMySat

Download on the App Store